Vernon, British Columbia

1:48 AM PDT on July 25, 2017 (GMT -0700)
Vernon

Weather History for CWJV - October, 2012

Change the Weather History Date:

Friday, October 12, 2012

  Actual Average (CYLW) Record (CYLW)
Temperature  
Mean Temperature 56 °F -  
Max Temperature 65 °F 54 °F 68 °F (2012)
Min Temperature 47 °F 33 °F 19 °F (2002)
Degree Days  
Heating Degree Days 9    
Growing Degree Days 6 (Base 50)    
Moisture  
Dew Point 42 °F    
Average Humidity 58    
Maximum Humidity 73    
Minimum Humidity 41    
Precipitation  
Precipitation 0.00 in - - ()
Sea Level Pressure  
Sea Level Pressure 29.73 in    
Wind  
Wind Speed 4 mph ()    
Max Wind Speed 12 mph    
Max Gust Speed -    
Averages and records for this station are not official NWS values.
T = Trace of Precipitation, MM = Missing Value Source: Averaged Metar Reports

Daily Weather History Graph

Daily Weather History Graph

Search for Another Location

Airport or City:

Trip Planner

Search our weather history database for the weather conditions in past years. The results will help you decide how hot, cold, wet, or windy it might be!

Date:

Astronomy

Oct. 12, 2012 Rise Set
Actual Time 7:15 AM PDT 6:10 PM PDT
Civil Twilight 6:42 AM PDT 6:43 PM PDT
Nautical Twilight 6:05 AM PDT 7:20 PM PDT
Astronomical Twilight 5:27 AM PDT 7:58 PM PDT
Moon 3:48 AM PDT (10/12) 4:35 PM PDT (10/12)
Length of Visible Light 12h 00m
Length of Day
10h 55m
Waning Crescent, 10% of the Moon is Illuminated
Oct 12
Waning Crescent
Oct 15
New
Oct 21
First Quarter
Oct 29
Full
Nov 6
Last Quarter

Hourly Weather History & Observations

Time (PDT) Temp. Dew Point Humidity Pressure Visibility Wind Dir Wind Speed Gust Speed Precip Events Conditions
12:00 AM 49.3 °F 38.1 °F 65% 29.73 in - ESE 5.8 mph - N/A   Unknown
1:00 AM 48.7 °F 38.1 °F 67% 29.71 in - ESE 9.2 mph - N/A   Unknown
2:00 AM 49.6 °F 38.3 °F 65% 29.69 in - ESE 11.5 mph - N/A   Unknown
4:00 AM 48.7 °F 38.3 °F 67% 29.69 in - ESE 8.1 mph - N/A   Unknown
5:00 AM 49 °F 38 °F 57% 29.69 in - ESE 5.8 mph - -  
6:00 AM 50.0 °F 38.3 °F 64% 29.69 in - East 8.1 mph - N/A   Unknown
7:00 AM 49.8 °F 39.0 °F 66% 29.69 in - ESE 9.2 mph - N/A   Unknown
8:00 AM 48.4 °F 39.4 °F 71% 29.71 in - East 3.5 mph - N/A   Unknown
10:00 AM 54.5 °F 41.2 °F 61% 29.72 in - East 3.5 mph - N/A   Unknown
11:00 AM 59 °F 42 °F 41% 29.72 in - East 1.2 mph - -  
11:00 AM 58.8 °F 41.7 °F 53% 29.72 in - East 1.2 mph - N/A   Unknown
12:00 PM 64.8 °F 42.3 °F 44% 29.71 in - West 2.3 mph - N/A   Unknown
1:00 PM 62.4 °F 40.5 °F 44% 29.71 in - NNW 2.3 mph - N/A   Unknown
2:00 PM 64.8 °F 41.0 °F 42% 29.70 in - NNW 1.2 mph - N/A   Unknown
3:00 PM 65.1 °F 42.4 °F 44% 29.71 in - WNW 2.3 mph - N/A   Unknown
5:00 PM 61 °F 44 °F 41% 29.74 in - NW 2.3 mph - -  
5:00 PM 61.2 °F 43.5 °F 52% 29.74 in - NW 2.3 mph - N/A   Unknown
6:00 PM 59.4 °F 44.1 °F 57% 29.75 in - NNE 1.2 mph - N/A   Unknown
7:00 PM 61.2 °F 41.5 °F 48% 29.77 in - West 3.5 mph - N/A   Unknown
8:00 PM 57.2 °F 46.4 °F 67% 29.81 in - WNW 2.3 mph - N/A   Unknown
9:00 PM 56.8 °F 45.7 °F 66% 29.80 in - ESE 2.3 mph - N/A   Unknown
10:00 PM 55.4 °F 45.9 °F 70% 29.81 in - ENE 2.3 mph - N/A   Unknown
11:00 PM 55 °F 46 °F 64% 29.81 in - North 1.2 mph - -  
11:00 PM 54.9 °F 46.2 °F 73% 29.81 in - North 1.2 mph - N/A   Unknown